Skip Page Navigation
NASA JPL Caltech
NASA Logo - Jet Propulsion Laboratory + View the NASA Portal
+ Center for Near-Earth Object Studies
JPL Home Earth Solar System Stars & Galaxies Technology
JPL Solar System Dynamics
BODIES ORBITS EPHEMERIDES TOOLS PHYSICAL DATA DISCOVERY FAQ SITE MAP
IMPORTANT: The SSD Announcement email list is now available. Major changes are coming in the near future, including possible hostname and/or URL changes. To be notified of such changes, subscribe to this email list.

Please visit this page for more details.


JPL Small-Body Database Browser
Search: [ help ]  
9712 Nauplius (1973 SO1)
Classification: Jupiter Trojan          SPK-ID: 2009712
Ephemeris | Orbit Diagram | Orbital Elements | Mission Design | Physical Parameters | Discovery Circumstances ]

[ hide orbit diagram ]

For accurate long-term ephemerides, please instead use our Horizons system.This orbit viewer was implemented using two-body methods, and hence should not be used for determining accurate long-term trajectories (over several years or decades) or planetary encounter circumstances.


[ revert to old Java-based viewer ]

Orbital Elements at Epoch 2459000.5 (2020-May-31.0) TDB
Reference: JPL 30 (heliocentric ecliptic J2000)
 Element Value Uncertainty (1-sigma)   Units 
e .1272750607936684 4.7704e-08  
a 5.231939742556441 9.8565e-08 au
q 4.566044293753761 2.7725e-07 au
i 8.466248471048761 6.4816e-06 deg
node 176.5845487164163 3.2664e-05 deg
peri 273.9606531748559 4.4356e-05 deg
M 262.0934295439456 3.4843e-05 deg
tp 2460189.281024947398
(2023-Sep-01.78102495)
0.00044394 TDB
period 4371.117964684041
11.97
0.00012352
3.382e-07
d
yr
n .08235879308419029 2.3274e-09 deg/d
Q 5.897835191359121 1.1111e-07 au
  Orbit Determination Parameters
   # obs. used (total)      1255  
   data-arc span      16868 days (46.18 yr)  
   first obs. used      1973-09-19  
   last obs. used      2019-11-25  
   planetary ephem.      DE431  
   SB-pert. ephem.      SB431-N16  
   condition code      0  
   norm. resid. RMS      .57503  
   source      ORB  
   producer      Otto Matic  
   solution date      2019-Dec-13 22:54:54  

Additional Information
 Earth MOID = 3.5962 au 
 Jupiter MOID = .103006 au 
 T_jup = 2.962 
[ show covariance matrix ]

Ephemeris | Orbit Diagram | Orbital Elements | Mission Design | Physical Parameters | Discovery Circumstances ]

Physical Parameter Table
Parameter Symbol Value Units Sigma Reference Notes
absolute magnitude H 10.9   n/a MPO452307  
diameter diameter 33.423 km 4.321 urn:nasa:pds:neowise_diameters_albedos::2.0[jupiter_trojans] (http://adsabs.harvard.edu/abs/2012ApJ...759...49G)  
rotation period rot_per 19.41 h n/a LCDB (Rev. 2019-August); Warner et al., 2009 Result based on less than full coverage, so that the period may be wrong by 30 percent or so.
Published Reference List:
[Stephens, R.D.; Coley, D.R.; French, L.M. (2014) Minor Planet Bull. 41, 210-212.]
geometric albedo albedo 0.083   0.026 urn:nasa:pds:neowise_diameters_albedos::2.0[jupiter_trojans] (http://adsabs.harvard.edu/abs/2012ApJ...759...49G)  

9712 Nauplius           Discovered 1973 Sept. 19 by C. J. van Houten and I. van Houten-Groeneveld on Palomar Schmidt plates taken by T. Gehrels.
Nauplius, a son of Poseidon and Amymone, was king of Euboea and father of Palamedes. After a false accusation by Odysseus caused the death of Palamedes, Nauplius sailed to Troy to seek vengeance. But this was denied by Agamemnon, so Nauplius returned to Greece, together with his surviving son Oceax. However, Nauplius earned his revenge. He misled the Greeks returning from Troy by placing lights on the cliffs of his land, so that many ships ran aground.
NOTE: some special characters may not display properly (any characters within {} are an attempt to place the proper accent above a character)
Reference: 19990402/MPCPages.arcLast Updated: 2010-06-11

Alternate Designations
 1973 SO1 = 1978 EO9 = 1989 EB8 
Ephemeris | Orbit Diagram | Orbital Elements | Mission Design | Physical Parameters | Discovery Circumstances ]
ABOUT SSD CREDITS/AWARDS PRIVACY/COPYRIGHT GLOSSARY LINKS
FirstGov 2020-Feb-26 14:05 UT
(server date/time)  
NASA Home Page
Site Manager:   Ryan S. Park
Webmaster  Alan B. Chamberlin